H-2A R/B, 43682

Orbit data source: Space-Track

H-2A R/B, 43682 is space debris in SSO originally from a launch on Mon, 29 Oct 2018 UTC launched from the Tanegashima Space Center (TNSTA). Debris objects in space refer to the collection of defunct objects orbiting the Earth. Examples of debris include non-operational satellites, rocket bodies, and fragments generated from explosions, collisions, or faulty payload assembly.

Loading next visibility...
Identifier
43682, 2018-084L
Orbit
SSO
Country
Flag of JPJP / JPN
Related business
Manufacturer
MHI Tobishima
Mission
Spacecraft
Bus & Motor
H-2A STAGE 2, Unknown motor
Mass
4,000 kg wet, 4,000 kg dry
Launch date (UTC)
2018-10-29 (7 years ago)
Launch vehicle
Unknown
Launch site
Tanegashima Space Center (TNSTA)
Object type
Payload
Rocket body
Debris
Shape & HBR
Cyl, 4.6 m
Radar Cross Section
35.186 m², Large (>1 m²)

Expand to show TLE details & history
Last TLE update: 8 hours ago

TLE from 8 hours ago
0 H-2A R/B
1 43682U 18084L   25286.95128841  .00021830  00000-0  64677-3 0  9992
2 43682  98.8834 108.7799 0029522 169.4789 190.7073 15.34463890383228
Epoch: 2025-10-13T22:49Z
TLE epoch observation values (Epoch: 2025-10-13T22:49:51.318Z)
Latitude
-0.00008°
Longitude
103.56938°
Altitude
485.426 km
Speed
7.612 km/s
True Right ascension
07h 15m 07s
True Declination
0° 00' 00"
Sunlit
Object was in daylight at epoch
Visualization orbit readout
Latitude
Unknown
Longitude
Unknown
Altitude
Unknown
Speed
Unknown
Apparent Right ascension
Unknown
Apparent Declination
Unknown
Sunlit
N/A
Visualization observer readout
Local Sidereal Time
01:32:05
Azimuth
Unknown
Elevation
Unknown
Doppler factor
Unknown
Orbital elements
Apogee altitude
479.716 km
Perigee altitude
439.344 km
Semi-major axis
6,837.667 km
Eccentricity
0.00295
Inclination
98.8834°
RAAN
108.7799°
Arg. of periapsis
169.4789°
True anomaly
190.64467°
Mean anomaly
190.7073°
Eccentric anomaly
190.67596°
Mean motion
3.83867 °/min
Orbital period
93.78 mins
BSTAR
0.00064677
Loading maneuver chart data...
Computing Atmospheric mass density...
Loading historical data...
Loading historical data...
Loading historical data...
Loading historical data...
Loading historical data...
Loading historical data...
Loading historical data...

Documentation

Showing up to 5 results
|